Weather History for Garrison, ND

Change the Weather History Date:

Saturday, August 31, 2013

  Actual Average Record
Temperature  
Mean Temperature 71 °F -  
Max Temperature 78 °F 78 °F 95 °F (2008)
Min Temperature 63 °F 51 °F 42 °F (2003)
Cooling Degree Days 6    
Month to date cooling degree days 155  
Year to date cooling degree days 316  
Since 1 June cooling degree days 310  
Growing Degree Days 18 (Base 50)    
Moisture  
Dew Point 58 °F    
Average Humidity 70    
Maximum Humidity 100    
Minimum Humidity 40    
Precipitation  
Precipitation 0.04 in - - ()
Month to date precipitation 3.46  
Year to date precipitation 22.31  
Sea Level Pressure  
Sea Level Pressure 29.84 in    
Wind  
Wind Speed 13 mph (WNW)    
Max Wind Speed 28 mph    
Max Gust Speed 39 mph    
Averages and records for this station are not official NWS values.
T = Trace of Precipitation, MM = Missing Value Source: NWS Daily Summary

Daily Weather History Graph

Daily Weather History Graph

Search for Another Location

Airport:

Trip Planner

Search our weather history database for the weather conditions in past years. The results will help you decide how hot, cold, wet, or windy it might be!

Date:

Astronomy

Aug. 31, 2013 Rise Set
Actual Time 7:03 AM CDT 8:27 PM CDT
Civil Twilight 6:31 AM CDT 8:59 PM CDT
Nautical Twilight 5:52 AM CDT 9:38 PM CDT
Astronomical Twilight 5:10 AM CDT 10:19 PM CDT
Moon 2:21 AM CDT (8/31) 5:38 PM CDT (8/31)
Length of Visible Light 14h 28m
Length of Day
13h 24m
Waning Crescent, 21% of the Moon is Illuminated
Aug 31
Waning Crescent
Sep 5
New
Sep 12
First Quarter
Sep 19
Full
Sep 26
Last Quarter

Hourly Weather History & Observations

Time (CDT) Temp. Dew Point Humidity Pressure Visibility Wind Dir Wind Speed Gust Speed Precip Events Conditions
12:52 AM 72.0 °F 63.0 °F 73% 29.78 in - South 13.8 mph 19.6 mph N/A   Unknown
1:52 AM 71.1 °F 63.0 °F 75% 29.79 in - SSW 9.2 mph - N/A   Unknown
2:52 AM 70.0 °F 60.1 °F 71% 29.78 in - SSW 8.1 mph - N/A   Unknown
3:52 AM 70.0 °F 61.0 °F 73% 29.77 in - SW 5.8 mph - N/A   Unknown
4:52 AM 66.9 °F 62.1 °F 84% 29.76 in - SW 4.6 mph - N/A   Unknown
5:52 AM 64.9 °F 62.1 °F 90% 29.77 in - Calm Calm - N/A   Unknown
6:52 AM 64.0 °F 62.1 °F 93% 29.78 in - WSW 3.5 mph - N/A   Unknown
7:52 AM 64.9 °F 64.0 °F 97% 29.79 in - Calm Calm - N/A   Unknown
8:52 AM 69.1 °F 64.9 °F 87% 29.81 in - WNW 12.7 mph - N/A   Unknown
9:52 AM 69.1 °F 63.0 °F 81% 29.79 in - NW 11.5 mph 26.5 mph 0.01 in   Unknown
10:52 AM 66.0 °F 59.0 °F 78% 29.85 in - WNW 15.0 mph 21.9 mph 0.03 in   Unknown
11:52 AM 71.1 °F 55.9 °F 59% 29.83 in - WNW 25.3 mph 35.7 mph N/A   Unknown
12:52 PM 73.9 °F 57.9 °F 57% 29.84 in - NW 20.7 mph 28.8 mph N/A   Unknown
1:52 PM 75.9 °F 57.0 °F 52% 29.85 in - NW 21.9 mph 33.4 mph N/A   Unknown
2:52 PM 77.0 °F 54.0 °F 45% 29.86 in - NNW 23.0 mph 32.2 mph N/A   Unknown
3:52 PM 77.0 °F 52.0 °F 42% 29.87 in - NW 15.0 mph 33.4 mph N/A   Unknown
4:52 PM 75.9 °F 51.1 °F 42% 29.87 in - NW 16.1 mph 31.1 mph N/A   Unknown
5:52 PM 75.0 °F 52.0 °F 44% 29.87 in - NW 18.4 mph 23.0 mph N/A   Unknown
6:52 PM 73.9 °F 52.0 °F 46% 29.88 in - NW 13.8 mph 31.1 mph N/A   Unknown
7:52 PM 70.0 °F 53.1 °F 55% 29.90 in - NNW 13.8 mph - N/A   Unknown
8:52 PM 66.0 °F 54.0 °F 65% 29.93 in - NNW 10.4 mph - N/A   Unknown
9:52 PM 60.1 °F 55.0 °F 83% 29.95 in - NW 5.8 mph - N/A   Unknown
10:52 PM 59.0 °F 54.0 °F 83% 29.96 in - WNW 5.8 mph - N/A   Unknown
11:52 PM 57.0 °F 54.0 °F 89% 29.97 in - NNW 6.9 mph - N/A   Unknown